This is the latest recevied weather packets stored in our database for station/object OK4ZAW-16. If no packets are shown the sender has not sent any weather packets the latest 10 day(s).
| Time | Temp. | Humidity | Pressure | Rain* | Wind** | Luminosity | Snow |
|---|---|---|---|---|---|---|---|
| 1777719013 | 17.22° C | 39% | 1026.6 hPa | - | - | 150 W/m² | - |
| 1777718595 | 17.78° C | 39% | 1026.6 hPa | - | - | 150 W/m² | - |
| 1777718178 | 18.33° C | 46% | 1026.6 hPa | - | - | 150 W/m² | - |
| 1777717760 | 17.22° C | 51% | 1026.7 hPa | - | - | 150 W/m² | - |
| 1777716925 | 16.67° C | 48% | 1026.9 hPa | - | - | 150 W/m² | - |
| 1777716507 | 17.22° C | 48% | 1027 hPa | - | - | 150 W/m² | - |
| 1777716089 | 17.22° C | 46% | 1027 hPa | - | - | 150 W/m² | - |
| 1777715672 | 17.78° C | 39% | 1027.1 hPa | - | - | 150 W/m² | - |
| 1777715254 | 17.22° C | 39% | 1027.1 hPa | - | - | 150 W/m² | - |
| 1777714836 | 17.22° C | 38% | 1027.2 hPa | - | - | 150 W/m² | - |
| 1777714418 | 17.22° C | 45% | 1027.2 hPa | - | - | 150 W/m² | - |
| 1777714001 | 16.67° C | 42% | 1027.3 hPa | - | - | 150 W/m² | - |
| 1777713583 | 16.11° C | 41% | 1027.4 hPa | - | - | 150 W/m² | - |
| 1777713166 | 16.11° C | 43% | 1027.3 hPa | - | - | 150 W/m² | - |
| 1777712748 | 15.56° C | 46% | 1027.4 hPa | - | - | 150 W/m² | - |
| 1777712331 | 15° C | 47% | 1027.5 hPa | - | - | 150 W/m² | - |
| 1777711914 | 14.44° C | 46% | 1027.6 hPa | - | - | 150 W/m² | - |
| 1777711497 | 14.44° C | 44% | 1027.5 hPa | - | - | 150 W/m² | - |
| 1777711080 | 15° C | 45% | 1027.5 hPa | - | - | 150 W/m² | - |
| 1777710662 | 15° C | 45% | 1027.6 hPa | - | - | 150 W/m² | - |
| 1777709828 | 14.44° C | 43% | 1027.6 hPa | - | - | 150 W/m² | - |
| 1777709411 | 14.44° C | 47% | 1027.6 hPa | - | - | 150 W/m² | - |
| 1777708576 | 14.44° C | 44% | 1027.6 hPa | - | - | 150 W/m² | - |
| 1777708159 | 15° C | 40% | 1027.7 hPa | - | - | 150 W/m² | - |
| 1777707742 | 15.56° C | 43% | 1027.7 hPa | - | - | 150 W/m² | - |
* Rain since midnight (hover to see other rain measurements)
** Current wind speed in m/s (hover to see current wind gust speed)